Time,TemperatureF,DewpointF,PressureIn,WindDirection,WindDirectionDegrees,WindSpeedMPH,WindSpeedGustMPH,Humidity,HourlyPrecipIn,Conditions,Clouds,dailyrainin,SoftwareType,DateUTC
2013-06-29 00:01:00,62.1,61.2,29.57,SE,146,0.0,0.0,97,0.00,,OVC005,0.91,VWS V14.01,2013-06-29 04:01:00,
2013-06-29 00:02:00,62.1,61.2,29.57,SE,146,0.0,0.0,97,0.00,,OVC005,0.91,VWS V14.01,2013-06-29 04:02:00,
2013-06-29 00:03:00,62.1,61.2,29.57,SSE,147,0.0,0.0,97,0.00,,OVC005,0.00,VWS V14.01,2013-06-29 04:03:00,
2013-06-29 00:09:00,62.0,61.1,29.56,SE,146,0.0,0.0,97,0.00,,OVC003,0.00,VWS V14.01,2013-06-29 04:09:00,
2013-06-29 00:14:00,62.0,61.1,29.56,SE,146,0.0,0.0,97,0.00,,OVC003,0.00,VWS V14.01,2013-06-29 04:14:00,
2013-06-29 00:19:00,62.0,61.1,29.56,SE,146,0.0,0.0,97,0.00,,OVC003,0.00,VWS V14.01,2013-06-29 04:19:00,
2013-06-29 00:24:00,62.1,61.2,29.56,SE,146,0.0,0.0,97,0.00,,OVC003,0.00,VWS V14.01,2013-06-29 04:24:00,
2013-06-29 00:29:00,62.1,61.2,29.56,SE,146,0.0,0.0,97,0.00,,OVC003,0.00,VWS V14.01,2013-06-29 04:29:00,
2013-06-29 00:34:00,62.1,61.2,29.56,SE,146,0.0,0.0,97,0.00,,OVC003,0.00,VWS V14.01,2013-06-29 04:34:00,
2013-06-29 00:39:00,62.2,61.3,29.56,SE,146,0.0,0.0,97,0.00,,OVC003,0.00,VWS V14.01,2013-06-29 04:39:00,
2013-06-29 00:44:00,62.2,61.3,29.56,SSE,147,0.0,0.0,97,0.00,,OVC003,0.00,VWS V14.01,2013-06-29 04:44:00,
2013-06-29 00:49:00,62.2,61.3,29.56,SE,146,0.0,0.0,97,0.00,,OVC003,0.00,VWS V14.01,2013-06-29 04:49:00,
2013-06-29 00:55:00,62.3,61.4,29.56,SE,146,0.0,0.0,97,0.00,,OVC003,0.00,VWS V14.01,2013-06-29 04:55:00,
2013-06-29 01:00:00,62.3,61.4,29.56,SE,131,0.0,0.0,97,0.00,,OVC003,0.00,VWS V14.01,2013-06-29 05:00:00,
2013-06-29 01:05:00,62.2,61.3,29.56,SE,125,0.0,0.0,97,0.00,,OVC003,0.00,VWS V14.01,2013-06-29 05:05:00,
2013-06-29 01:10:00,62.2,61.3,29.56,SE,125,0.0,0.0,97,0.00,,OVC003,0.00,VWS V14.01,2013-06-29 05:10:00,
2013-06-29 01:15:00,62.3,61.4,29.56,SE,126,0.0,0.0,97,0.00,,OVC003,0.00,VWS V14.01,2013-06-29 05:15:00,
2013-06-29 01:20:00,62.4,61.5,29.55,SE,125,0.0,0.0,97,0.00,,OVC003,0.00,VWS V14.01,2013-06-29 05:20:00,
2013-06-29 01:25:00,62.4,61.5,29.56,SE,126,0.0,0.0,97,0.00,,OVC003,0.00,VWS V14.01,2013-06-29 05:25:00,
2013-06-29 01:30:00,62.4,61.5,29.55,SE,125,0.0,0.0,97,0.00,,OVC003,0.00,VWS V14.01,2013-06-29 05:30:00,
2013-06-29 01:35:00,62.4,61.5,29.56,SE,125,0.0,0.0,97,0.00,,OVC005,0.00,VWS V14.01,2013-06-29 05:35:00,
2013-06-29 01:41:00,62.4,61.5,29.55,SE,125,0.0,0.0,97,0.00,,OVC005,0.00,VWS V14.01,2013-06-29 05:41:00,
2013-06-29 01:46:00,62.3,61.4,29.55,ESE,113,0.0,0.0,97,0.00,,OVC005,0.00,VWS V14.01,2013-06-29 05:46:00,
2013-06-29 01:51:00,62.3,61.4,29.55,ESE,113,0.0,0.0,97,0.00,,OVC005,0.00,VWS V14.01,2013-06-29 05:51:00,
2013-06-29 01:56:00,62.2,61.3,29.55,ESE,113,0.0,0.0,97,0.00,,OVC005,0.00,VWS V14.01,2013-06-29 05:56:00,
2013-06-29 02:01:00,62.2,61.3,29.55,SE,128,0.0,0.0,97,0.00,,OVC005,0.00,VWS V14.01,2013-06-29 06:01:00,
2013-06-29 02:06:00,62.2,61.3,29.55,ESE,122,0.0,0.0,97,0.00,,OVC005,0.00,VWS V14.01,2013-06-29 06:06:00,
2013-06-29 02:11:00,62.1,61.2,29.55,ESE,121,0.0,0.0,97,0.00,,OVC005,0.00,VWS V14.01,2013-06-29 06:11:00,
2013-06-29 02:16:00,62.2,61.3,29.55,SE,125,0.0,0.0,97,0.00,,OVC005,0.00,VWS V14.01,2013-06-29 06:16:00,
2013-06-29 02:21:00,62.2,61.3,29.55,ESE,122,0.0,0.0,97,0.00,,OVC005,0.00,VWS V14.01,2013-06-29 06:21:00,
2013-06-29 02:27:00,62.2,61.3,29.55,SE,125,0.0,0.0,97,0.00,,OVC005,0.00,VWS V14.01,2013-06-29 06:27:00,
2013-06-29 02:32:00,62.1,61.2,29.55,SE,127,0.0,0.0,97,0.00,,,0.00,VWS V14.01,2013-06-29 06:32:00,
2013-06-29 02:37:00,62.1,61.2,29.55,ESE,123,0.0,0.0,97,0.00,,,0.00,VWS V14.01,2013-06-29 06:37:00,
2013-06-29 02:42:00,62.1,61.2,29.55,ESE,116,0.0,0.0,97,0.00,,,0.00,VWS V14.01,2013-06-29 06:42:00,
2013-06-29 02:47:00,62.2,61.6,29.55,ESE,115,0.0,0.0,98,0.00,,,0.00,VWS V14.01,2013-06-29 06:47:00,
2013-06-29 02:52:00,62.2,61.6,29.55,ESE,116,0.0,0.0,98,0.00,,,0.00,VWS V14.01,2013-06-29 06:52:00,
2013-06-29 02:57:00,62.2,61.6,29.55,ESE,116,0.0,0.0,98,0.00,,,0.00,VWS V14.01,2013-06-29 06:57:00,
2013-06-29 03:02:00,62.2,61.6,29.55,ESE,116,0.0,0.0,98,0.00,,,0.00,VWS V14.01,2013-06-29 07:02:00,
2013-06-29 03:07:00,62.2,61.6,29.55,SE,136,0.0,0.0,98,0.00,,,0.00,VWS V14.01,2013-06-29 07:07:00,
2013-06-29 03:13:00,62.2,61.6,29.55,SE,133,0.0,0.0,98,0.00,,,0.00,VWS V14.01,2013-06-29 07:13:00,
2013-06-29 03:18:00,62.2,61.6,29.55,SE,132,0.0,0.0,98,0.00,,,0.00,VWS V14.01,2013-06-29 07:18:00,
2013-06-29 03:23:00,62.1,61.5,29.55,SE,131,0.0,0.0,98,0.00,,,0.00,VWS V14.01,2013-06-29 07:23:00,
2013-06-29 03:28:00,62.1,61.5,29.55,SE,131,0.0,0.0,98,0.00,,,0.00,VWS V14.01,2013-06-29 07:28:00,
2013-06-29 03:33:00,62.0,61.4,29.55,ESE,117,0.0,0.0,98,0.00,,,0.00,VWS V14.01,2013-06-29 07:33:00,
2013-06-29 03:38:00,61.8,61.2,29.55,ESE,110,0.0,0.0,98,0.00,,,0.00,VWS V14.01,2013-06-29 07:38:00,
2013-06-29 03:43:00,61.8,61.2,29.54,ESE,106,0.0,0.0,98,0.00,,,0.00,VWS V14.01,2013-06-29 07:43:00,
2013-06-29 03:48:00,61.7,61.1,29.54,SE,127,0.0,0.0,98,0.00,,,0.00,VWS V14.01,2013-06-29 07:48:00,
2013-06-29 03:53:00,61.7,61.1,29.54,East,87,0.0,0.0,98,0.00,,,0.00,VWS V14.01,2013-06-29 07:53:00,
2013-06-29 03:59:00,61.7,61.1,29.55,SE,126,0.0,0.0,98,0.00,,,0.00,VWS V14.01,2013-06-29 07:59:00,
2013-06-29 04:04:00,61.6,61.0,29.54,ESE,110,0.0,0.0,98,0.00,,,0.00,VWS V14.01,2013-06-29 08:04:00,
2013-06-29 04:09:00,61.6,61.0,29.54,SE,132,0.0,0.0,98,0.00,,,0.00,VWS V14.01,2013-06-29 08:09:00,
2013-06-29 04:14:00,61.6,61.0,29.54,ESE,108,0.0,0.0,98,0.00,,,0.00,VWS V14.01,2013-06-29 08:14:00,
2013-06-29 04:19:00,61.6,61.0,29.54,ESE,107,0.0,0.0,98,0.00,,,0.00,VWS V14.01,2013-06-29 08:19:00,
2013-06-29 04:24:00,61.5,60.9,29.55,ESE,107,0.0,0.0,98,0.00,,,0.00,VWS V14.01,2013-06-29 08:24:00,
2013-06-29 04:29:00,61.5,60.9,29.55,ESE,107,0.0,0.0,98,0.00,,,0.00,VWS V14.01,2013-06-29 08:29:00,
2013-06-29 04:34:00,61.6,61.0,29.55,ESE,108,0.0,0.0,98,0.00,,,0.00,VWS V14.01,2013-06-29 08:34:00,
2013-06-29 04:39:00,61.6,61.0,29.55,ESE,108,0.0,0.0,98,0.00,,,0.00,VWS V14.01,2013-06-29 08:39:00,
2013-06-29 04:45:00,61.6,61.0,29.55,ESE,108,0.0,0.0,98,0.00,,,0.00,VWS V14.01,2013-06-29 08:45:00,
2013-06-29 04:50:00,61.6,61.0,29.55,ESE,107,0.0,0.0,98,0.00,,,0.00,VWS V14.01,2013-06-29 08:50:00,
2013-06-29 04:55:00,61.6,61.0,29.55,East,99,0.0,0.0,98,0.00,,,0.00,VWS V14.01,2013-06-29 08:55:00,
2013-06-29 05:00:00,61.6,61.0,29.55,East,98,0.0,0.0,98,0.00,,,0.00,VWS V14.01,2013-06-29 09:00:00,
2013-06-29 05:05:00,61.6,61.0,29.55,East,98,0.0,0.0,98,0.00,,,0.00,VWS V14.01,2013-06-29 09:05:00,
2013-06-29 05:10:00,61.5,60.9,29.55,ESE,104,0.0,0.0,98,0.00,,,0.00,VWS V14.01,2013-06-29 09:10:00,
2013-06-29 05:15:00,61.4,60.8,29.55,SE,128,0.0,0.0,98,0.00,,,0.00,VWS V14.01,2013-06-29 09:15:00,
2013-06-29 05:20:00,61.4,60.8,29.55,East,97,0.0,0.0,98,0.00,,,0.00,VWS V14.01,2013-06-29 09:20:00,
2013-06-29 05:25:00,61.4,60.8,29.55,East,98,0.0,0.0,98,0.00,,,0.00,VWS V14.01,2013-06-29 09:25:00,
2013-06-29 05:31:00,61.4,60.8,29.55,East,98,0.0,0.0,98,0.00,,,0.00,VWS V14.01,2013-06-29 09:31:00,
2013-06-29 05:36:00,61.4,60.8,29.55,East,98,0.0,0.0,98,0.00,,,0.00,VWS V14.01,2013-06-29 09:36:00,
2013-06-29 05:41:00,61.3,60.7,29.55,East,99,0.0,0.0,98,0.00,,,0.00,VWS V14.01,2013-06-29 09:41:00,
2013-06-29 05:46:00,61.4,60.8,29.55,East,98,0.0,0.0,98,0.00,,,0.00,VWS V14.01,2013-06-29 09:46:00,
2013-06-29 05:51:00,61.4,60.8,29.56,East,99,0.0,0.0,98,0.00,,,0.00,VWS V14.01,2013-06-29 09:51:00,
2013-06-29 05:56:00,61.4,60.8,29.56,East,99,0.0,0.0,98,0.00,,,0.00,VWS V14.01,2013-06-29 09:56:00,
2013-06-29 06:01:00,61.4,60.8,29.56,East,99,0.0,0.0,98,0.00,,,0.00,VWS V14.01,2013-06-29 10:01:00,
2013-06-29 06:06:00,61.5,60.9,29.56,East,98,0.0,0.0,98,0.00,,,0.00,VWS V14.01,2013-06-29 10:06:00,
2013-06-29 06:11:00,61.6,61.0,29.57,East,99,0.0,0.0,98,0.00,,,0.00,VWS V14.01,2013-06-29 10:11:00,
2013-06-29 06:17:00,61.6,61.0,29.57,East,99,0.0,0.0,98,0.00,,,0.00,VWS V14.01,2013-06-29 10:17:00,
2013-06-29 06:22:00,61.7,61.1,29.57,East,98,0.0,0.0,98,0.00,,,0.00,VWS V14.01,2013-06-29 10:22:00,
2013-06-29 06:27:00,61.8,61.2,29.57,East,99,0.0,0.0,98,0.00,,,0.00,VWS V14.01,2013-06-29 10:27:00,
2013-06-29 06:32:00,61.9,61.3,29.57,East,98,0.0,0.0,98,0.00,,,0.00,VWS V14.01,2013-06-29 10:32:00,
2013-06-29 06:37:00,62.0,61.4,29.57,East,98,0.0,0.0,98,0.00,,,0.00,VWS V14.01,2013-06-29 10:37:00,
2013-06-29 06:42:00,62.1,61.5,29.57,East,99,0.0,0.0,98,0.00,,,0.00,VWS V14.01,2013-06-29 10:42:00,
2013-06-29 06:47:00,62.1,61.5,29.57,East,98,0.0,0.0,98,0.00,,,0.00,VWS V14.01,2013-06-29 10:47:00,
2013-06-29 06:52:00,62.2,61.6,29.58,East,99,0.0,0.0,98,0.00,,,0.00,VWS V14.01,2013-06-29 10:52:00,
2013-06-29 06:57:00,62.3,61.7,29.58,East,99,0.0,0.0,98,0.00,,,0.00,VWS V14.01,2013-06-29 10:57:00,
2013-06-29 07:03:00,62.4,61.8,29.57,East,98,0.0,0.0,98,0.00,,,0.00,VWS V14.01,2013-06-29 11:03:00,
2013-06-29 07:08:00,62.5,61.9,29.57,East,96,0.0,0.0,98,0.00,,,0.00,VWS V14.01,2013-06-29 11:08:00,
2013-06-29 07:13:00,62.5,61.9,29.58,SE,124,0.0,0.0,98,0.00,,,0.00,VWS V14.01,2013-06-29 11:13:00,
2013-06-29 07:18:00,62.6,62.0,29.58,SE,125,0.0,0.0,98,0.00,,,0.00,VWS V14.01,2013-06-29 11:18:00,
2013-06-29 07:23:00,62.7,62.1,29.58,SE,125,0.0,0.0,98,0.01,,,0.01,VWS V14.01,2013-06-29 11:23:00,
2013-06-29 07:28:00,62.9,62.3,29.58,SE,125,0.0,0.0,98,0.01,,,0.01,VWS V14.01,2013-06-29 11:28:00,
2013-06-29 07:33:00,63.3,62.7,29.57,ESE,116,0.0,0.0,98,0.01,,,0.01,VWS V14.01,2013-06-29 11:33:00,
2013-06-29 07:38:00,63.4,62.8,29.57,SE,128,0.0,0.0,98,0.01,,,0.01,VWS V14.01,2013-06-29 11:38:00,
2013-06-29 07:43:00,63.6,63.3,29.57,ESE,121,0.0,0.0,99,0.01,,,0.01,VWS V14.01,2013-06-29 11:43:00,
2013-06-29 07:49:00,63.7,63.1,29.57,ESE,115,0.0,0.0,98,0.01,,,0.01,VWS V14.01,2013-06-29 11:49:00,
2013-06-29 07:54:00,63.8,63.2,29.57,ESE,113,0.0,0.0,98,0.01,,,0.01,VWS V14.01,2013-06-29 11:54:00,
2013-06-29 07:59:00,64.0,63.4,29.57,SE,134,0.0,0.0,98,0.01,,,0.01,VWS V14.01,2013-06-29 11:59:00,
2013-06-29 08:04:00,64.1,63.5,29.57,SSE,162,0.0,0.0,98,0.01,,,0.01,VWS V14.01,2013-06-29 12:04:00,
2013-06-29 08:09:00,64.3,63.7,29.57,SSE,165,0.0,0.0,98,0.01,,,0.01,VWS V14.01,2013-06-29 12:09:00,
2013-06-29 08:14:00,64.6,64.0,29.57,SSE,163,0.0,0.0,98,0.01,,,0.01,VWS V14.01,2013-06-29 12:14:00,
2013-06-29 08:19:00,64.8,64.2,29.57,SSE,153,1.0,2.0,98,0.01,,,0.01,VWS V14.01,2013-06-29 12:19:00,
2013-06-29 08:25:00,65.0,64.4,29.57,SW,221,1.0,2.0,98,0.01,,,0.01,VWS V14.01,2013-06-29 12:25:00,
2013-06-29 08:30:00,65.3,64.7,29.57,SW,229,0.0,2.0,98,0.01,,,0.01,VWS V14.01,2013-06-29 12:30:00,
2013-06-29 08:35:00,65.8,65.2,29.57,SSE,158,0.0,2.0,98,0.00,,,0.01,VWS V14.01,2013-06-29 12:35:00,
2013-06-29 08:40:00,66.0,65.1,29.57,SW,232,1.0,2.0,97,0.00,,,0.01,VWS V14.01,2013-06-29 12:40:00,
2013-06-29 08:45:00,66.4,65.2,29.57,SE,125,1.0,2.0,96,0.00,,,0.01,VWS V14.01,2013-06-29 12:45:00,
2013-06-29 08:50:00,67.3,65.8,29.57,SW,230,1.0,3.0,95,0.00,,,0.01,VWS V14.01,2013-06-29 12:50:00,
2013-06-29 08:55:00,68.2,66.1,29.57,SSE,167,2.0,3.0,93,0.00,,,0.01,VWS V14.01,2013-06-29 12:55:00,
2013-06-29 09:00:00,69.1,66.7,29.58,ESE,118,2.0,3.0,92,0.00,,,0.01,VWS V14.01,2013-06-29 13:00:00,
2013-06-29 09:06:00,69.6,66.2,29.57,South,172,3.0,3.0,89,0.00,,,0.01,VWS V14.01,2013-06-29 13:06:00,
2013-06-29 09:11:00,69.4,65.7,29.57,SE,134,0.0,3.0,88,0.00,,,0.01,VWS V14.01,2013-06-29 13:11:00,
2013-06-29 09:16:00,69.4,66.0,29.57,SW,224,1.0,3.0,89,0.00,,BKN017,0.01,VWS V14.01,2013-06-29 13:16:00,
2013-06-29 09:21:00,69.3,65.6,29.57,WSW,242,1.0,3.0,88,0.00,,BKN017,0.01,VWS V14.01,2013-06-29 13:21:00,
2013-06-29 09:26:00,68.9,65.2,29.57,SW,236,0.0,3.0,88,0.00,,BKN017,0.01,VWS V14.01,2013-06-29 13:26:00,
2013-06-29 09:31:00,68.8,65.4,29.57,SW,236,1.0,3.0,89,0.00,,BKN017,0.01,VWS V14.01,2013-06-29 13:31:00,
2013-06-29 09:36:00,69.2,66.2,29.57,WSW,254,0.0,0.0,90,0.00,,SCT021,0.01,VWS V14.01,2013-06-29 13:36:00,
2013-06-29 09:42:00,69.4,65.7,29.57,WSW,238,1.0,1.0,88,0.00,,SCT021,0.01,VWS V14.01,2013-06-29 13:42:00,
2013-06-29 09:47:00,69.7,65.7,29.57,SW,226,0.0,2.0,87,0.00,,SCT021,0.01,VWS V14.01,2013-06-29 13:47:00,
2013-06-29 09:52:00,70.3,66.2,29.57,West,269,2.0,2.0,87,0.00,,SCT021,0.01,VWS V14.01,2013-06-29 13:52:00,
2013-06-29 09:57:00,70.2,65.1,29.57,West,260,2.0,3.0,84,0.00,,SCT021,0.01,VWS V14.01,2013-06-29 13:57:00,
2013-06-29 10:02:00,70.2,65.1,29.57,WSW,243,2.0,3.0,84,0.00,,SCT021,0.01,VWS V14.01,2013-06-29 14:02:00,
2013-06-29 10:07:00,69.9,64.8,29.57,West,264,1.0,2.0,84,0.00,,SCT021,0.01,VWS V14.01,2013-06-29 14:07:00,
2013-06-29 10:12:00,69.7,65.0,29.57,WNW,301,0.0,2.0,85,0.00,,SCT021,0.01,VWS V14.01,2013-06-29 14:12:00,
2013-06-29 10:17:00,69.1,65.4,29.57,NNW,328,0.0,2.0,88,0.01,,SCT021,0.02,VWS V14.01,2013-06-29 14:17:00,
2013-06-29 10:22:00,68.6,65.9,29.57,NW,326,0.0,2.0,91,0.01,,SCT021,0.02,VWS V14.01,2013-06-29 14:22:00,
2013-06-29 10:28:00,68.5,65.8,29.57,West,259,0.0,2.0,91,0.01,,SCT021,0.02,VWS V14.01,2013-06-29 14:28:00,
2013-06-29 10:33:00,68.8,66.4,29.56,West,271,0.0,2.0,92,0.01,,BKN110,0.02,VWS V14.01,2013-06-29 14:33:00,
2013-06-29 10:38:00,69.0,65.6,29.56,WSW,255,1.0,3.0,89,0.01,,BKN110,0.02,VWS V14.01,2013-06-29 14:38:00,
2013-06-29 10:43:00,69.3,65.9,29.57,West,259,2.0,3.0,89,0.01,,BKN110,0.02,VWS V14.01,2013-06-29 14:43:00,
2013-06-29 10:48:00,69.2,65.2,29.57,West,260,3.0,3.0,87,0.01,,BKN110,0.02,VWS V14.01,2013-06-29 14:48:00,
2013-06-29 10:53:00,69.1,65.4,29.57,West,267,0.0,3.0,88,0.01,,BKN110,0.02,VWS V14.01,2013-06-29 14:53:00,
2013-06-29 10:58:00,69.2,65.8,29.57,WSW,252,1.0,3.0,89,0.02,,BKN110,0.03,VWS V14.01,2013-06-29 14:58:00,
2013-06-29 11:03:00,69.0,65.6,29.57,West,264,1.0,1.0,89,0.02,,BKN110,0.03,VWS V14.01,2013-06-29 15:03:00,
2013-06-29 11:08:00,69.0,65.9,29.58,West,267,1.0,1.0,90,0.02,,BKN110,0.03,VWS V14.01,2013-06-29 15:08:00,
2013-06-29 11:14:00,68.8,65.8,29.58,West,274,1.0,2.0,90,0.02,,BKN110,0.03,VWS V14.01,2013-06-29 15:14:00,
2013-06-29 11:19:00,68.6,65.6,29.58,West,271,1.0,2.0,90,0.03,,BKN110,0.04,VWS V14.01,2013-06-29 15:19:00,
2013-06-29 11:24:00,68.4,65.7,29.58,West,278,0.0,2.0,91,0.03,,BKN110,0.04,VWS V14.01,2013-06-29 15:24:00,
2013-06-29 11:29:00,68.1,65.4,29.58,West,270,1.0,3.0,91,0.03,,BKN110,0.04,VWS V14.01,2013-06-29 15:29:00,
2013-06-29 11:34:00,68.0,65.6,29.58,WNW,301,2.0,2.0,92,0.03,,BKN100,0.05,VWS V14.01,2013-06-29 15:34:00,
2013-06-29 11:39:00,68.1,65.7,29.58,NW,310,2.0,2.0,92,0.03,,BKN100,0.05,VWS V14.01,2013-06-29 15:39:00,
2013-06-29 11:44:00,67.9,65.5,29.58,NW,322,0.0,3.0,92,0.03,,BKN100,0.05,VWS V14.01,2013-06-29 15:44:00,
2013-06-29 11:49:00,67.6,65.5,29.58,North,356,1.0,3.0,93,0.03,,BKN100,0.05,VWS V14.01,2013-06-29 15:49:00,
2013-06-29 11:55:00,67.4,65.0,29.58,NNW,332,0.0,3.0,92,0.03,,BKN100,0.05,VWS V14.01,2013-06-29 15:55:00,
2013-06-29 12:00:00,67.7,65.6,29.58,NW,307,0.0,3.0,93,0.04,,BKN100,0.06,VWS V14.01,2013-06-29 16:00:00,
2013-06-29 12:05:00,68.8,66.7,29.58,SSE,161,1.0,1.0,93,0.03,,BKN100,0.06,VWS V14.01,2013-06-29 16:05:00,
2013-06-29 12:10:00,69.6,66.5,29.58,ESE,106,0.0,2.0,90,0.03,,BKN100,0.06,VWS V14.01,2013-06-29 16:10:00,
2013-06-29 12:15:00,70.1,67.4,29.58,North,356,0.0,2.0,91,0.03,,BKN100,0.06,VWS V14.01,2013-06-29 16:15:00,
2013-06-29 12:20:00,70.3,66.9,29.58,East,88,0.0,2.0,89,0.03,,BKN100,0.06,VWS V14.01,2013-06-29 16:20:00,
2013-06-29 12:25:00,70.5,67.1,29.58,NNW,346,0.0,2.0,89,0.03,,BKN100,0.06,VWS V14.01,2013-06-29 16:25:00,
2013-06-29 12:30:00,70.1,66.1,29.58,West,260,1.0,4.0,87,0.03,,BKN100,0.06,VWS V14.01,2013-06-29 16:30:00,
2013-06-29 12:35:00,70.2,66.5,29.58,East,91,0.0,2.0,88,0.01,,BKN060,0.06,VWS V14.01,2013-06-29 16:35:00,
2013-06-29 12:41:00,70.7,66.3,29.58,North,8,0.0,2.0,86,0.01,,BKN060,0.06,VWS V14.01,2013-06-29 16:41:00,
2013-06-29 12:46:00,71.0,66.6,29.58,NE,53,0.0,2.0,86,0.01,,BKN060,0.06,VWS V14.01,2013-06-29 16:46:00,
2013-06-29 12:51:00,71.2,66.1,29.58,SW,219,0.0,2.0,84,0.01,,BKN060,0.06,VWS V14.01,2013-06-29 16:51:00,
2013-06-29 12:56:00,71.8,67.7,29.58,NE,41,0.0,2.0,87,0.01,,BKN060,0.06,VWS V14.01,2013-06-29 16:56:00,
2013-06-29 13:01:00,72.4,67.6,29.58,WNW,297,0.0,2.0,85,0.01,,BKN060,0.06,VWS V14.01,2013-06-29 17:01:00,
2013-06-29 13:06:00,72.4,66.6,29.57,WSW,239,0.0,0.0,82,0.00,,RA,0.06,VWS V14.01,2013-06-29 17:06:00,
2013-06-29 13:11:00,72.4,66.6,29.58,WSW,248,0.0,0.0,82,0.00,,RA,0.06,VWS V14.01,2013-06-29 17:11:00,
2013-06-29 13:16:00,73.3,67.8,29.58,SW,233,2.0,2.0,83,0.00,,RA,0.06,VWS V14.01,2013-06-29 17:16:00,
2013-06-29 13:22:00,74.0,67.1,29.57,WSW,241,0.0,2.0,79,0.00,,RA,0.06,VWS V14.01,2013-06-29 17:22:00,
2013-06-29 13:27:00,74.9,67.9,29.58,WNW,301,1.0,2.0,79,0.00,,RA,0.06,VWS V14.01,2013-06-29 17:27:00,
2013-06-29 13:32:00,74.2,66.2,29.58,WSW,256,0.0,2.0,76,0.00,,RA,0.06,VWS V14.01,2013-06-29 17:32:00,
2013-06-29 13:37:00,73.3,66.8,29.58,WNW,293,1.0,5.0,80,0.00,,-RA,0.06,VWS V14.01,2013-06-29 17:37:00,
2013-06-29 13:42:00,72.9,66.4,29.57,NW,312,0.0,5.0,80,0.00,,-RA,0.06,VWS V14.01,2013-06-29 17:42:00,
2013-06-29 13:47:00,73.1,68.0,29.57,ESE,110,0.0,5.0,84,0.00,,-RA,0.06,VWS V14.01,2013-06-29 17:47:00,
2013-06-29 13:52:00,73.5,68.0,29.58,North,11,1.0,5.0,83,0.00,,-RA,0.06,VWS V14.01,2013-06-29 17:52:00,
2013-06-29 13:57:00,73.2,67.0,29.57,WNW,296,2.0,5.0,81,0.00,,-RA,0.06,VWS V14.01,2013-06-29 17:57:00,
2013-06-29 14:03:00,72.5,66.7,29.57,SW,233,1.0,5.0,82,0.00,,-RA,0.06,VWS V14.01,2013-06-29 18:03:00,
2013-06-29 14:08:00,71.8,66.7,29.58,SSW,201,1.0,3.0,84,0.01,,-RA,0.07,VWS V14.01,2013-06-29 18:08:00,
2013-06-29 14:13:00,70.4,66.0,29.58,NNE,15,1.0,5.0,86,0.26,,-RA,0.32,VWS V14.01,2013-06-29 18:13:00,
2013-06-29 14:18:00,69.2,65.5,29.59,WNW,284,0.0,5.0,88,0.35,,-RA,0.41,VWS V14.01,2013-06-29 18:18:00,
2013-06-29 14:23:00,68.3,65.3,29.59,SSE,158,0.0,5.0,90,0.46,,-RA,0.52,VWS V14.01,2013-06-29 18:23:00,
2013-06-29 14:28:00,67.8,65.4,29.59,West,278,1.0,5.0,92,0.49,,-RA,0.55,VWS V14.01,2013-06-29 18:28:00,
2013-06-29 14:33:00,67.8,65.7,29.59,West,271,1.0,1.0,93,0.53,,-RA,0.59,VWS V14.01,2013-06-29 18:33:00,
2013-06-29 14:38:00,67.9,65.8,29.59,NW,324,1.0,3.0,93,0.53,,-RA,0.59,VWS V14.01,2013-06-29 18:38:00,
2013-06-29 14:44:00,68.1,66.3,29.59,WNW,291,0.0,3.0,94,0.53,,-RA,0.59,VWS V14.01,2013-06-29 18:44:00,
2013-06-29 14:49:00,68.4,66.6,29.60,ESE,108,1.0,3.0,94,0.53,,-RA,0.59,VWS V14.01,2013-06-29 18:49:00,
2013-06-29 14:54:00,68.8,67.0,29.60,ESE,120,1.0,3.0,94,0.53,,-RA,0.59,VWS V14.01,2013-06-29 18:54:00,
2013-06-29 14:59:00,69.1,66.7,29.60,SSW,208,1.0,5.0,92,0.53,,-RA,0.59,VWS V14.01,2013-06-29 18:59:00,
2013-06-29 15:04:00,69.4,67.0,29.60,NW,315,0.0,2.0,92,0.53,,-RA,0.59,VWS V14.01,2013-06-29 19:04:00,
2013-06-29 15:09:00,69.8,67.4,29.60,SE,125,1.0,3.0,92,0.53,,-RA,0.59,VWS V14.01,2013-06-29 19:09:00,
2013-06-29 15:14:00,70.0,67.6,29.60,East,89,1.0,3.0,92,0.53,,-RA,0.59,VWS V14.01,2013-06-29 19:14:00,
2013-06-29 15:19:00,70.2,67.4,29.60,SE,124,0.0,3.0,91,0.53,,-RA,0.59,VWS V14.01,2013-06-29 19:19:00,
2013-06-29 15:25:00,70.0,66.9,29.60,ESE,105,0.0,3.0,90,0.53,,-RA,0.59,VWS V14.01,2013-06-29 19:25:00,
2013-06-29 15:30:00,69.8,66.7,29.61,East,96,0.0,3.0,90,0.53,,-RA,0.59,VWS V14.01,2013-06-29 19:30:00,
2013-06-29 15:35:00,69.8,66.7,29.61,SE,139,0.0,0.0,90,0.01,,-RA,0.59,VWS V14.01,2013-06-29 19:35:00,
2013-06-29 15:40:00,70.2,67.1,29.61,SSE,159,0.0,0.0,90,0.01,,-RA,0.59,VWS V14.01,2013-06-29 19:40:00,
2013-06-29 15:46:00,70.3,66.9,29.61,SSE,158,0.0,0.0,89,0.01,,-RA,0.59,VWS V14.01,2013-06-29 19:46:00,
2013-06-29 15:51:00,70.5,67.1,29.61,SSW,207,0.0,0.0,89,0.01,,-RA,0.59,VWS V14.01,2013-06-29 19:51:00,
2013-06-29 15:56:00,70.5,66.4,29.61,East,86,0.0,0.0,87,0.01,,-RA,0.59,VWS V14.01,2013-06-29 19:56:00,
2013-06-29 16:01:00,70.5,66.8,29.62,East,85,0.0,0.0,88,0.01,,-RA,0.59,VWS V14.01,2013-06-29 20:01:00,
2013-06-29 16:07:00,69.9,66.5,29.62,East,86,0.0,0.0,89,0.01,,-RA,0.60,VWS V14.01,2013-06-29 20:07:00,
2013-06-29 16:12:00,69.6,66.9,29.62,ENE,60,0.0,0.0,91,0.01,,-RA,0.60,VWS V14.01,2013-06-29 20:12:00,
2013-06-29 16:17:00,69.3,66.6,29.62,ENE,59,0.0,0.0,91,0.01,,-RA,0.60,VWS V14.01,2013-06-29 20:17:00,
2013-06-29 16:22:00,68.8,66.4,29.62,WSW,247,0.0,1.0,92,0.04,,-RA,0.63,VWS V14.01,2013-06-29 20:22:00,
2013-06-29 16:27:00,68.3,65.9,29.63,WSW,240,0.0,1.0,92,0.07,,-RA,0.66,VWS V14.01,2013-06-29 20:27:00,
2013-06-29 16:32:00,67.9,65.8,29.63,SE,130,0.0,2.0,93,0.10,,OVC080,0.69,VWS V14.01,2013-06-29 20:32:00,
2013-06-29 16:38:00,67.8,66.0,29.63,SSW,193,0.0,1.0,94,0.12,,OVC080,0.71,VWS V14.01,2013-06-29 20:38:00,
2013-06-29 16:43:00,67.7,65.9,29.63,SSW,208,0.0,1.0,94,0.12,,OVC080,0.71,VWS V14.01,2013-06-29 20:43:00,
2013-06-29 16:48:00,67.7,65.9,29.63,NE,35,0.0,2.0,94,0.12,,OVC080,0.71,VWS V14.01,2013-06-29 20:48:00,
2013-06-29 16:53:00,67.8,66.0,29.63,SE,139,0.0,2.0,94,0.12,,OVC080,0.71,VWS V14.01,2013-06-29 20:53:00,
2013-06-29 16:58:00,67.9,66.1,29.64,ESE,103,0.0,2.0,94,0.12,,OVC080,0.71,VWS V14.01,2013-06-29 20:58:00,
2013-06-29 17:03:00,68.0,66.2,29.64,ENE,77,2.0,2.0,94,0.11,,OVC080,0.71,VWS V14.01,2013-06-29 21:03:00,
2013-06-29 17:08:00,68.3,66.5,29.64,SE,131,0.0,3.0,94,0.11,,OVC080,0.71,VWS V14.01,2013-06-29 21:08:00,
2013-06-29 17:13:00,68.5,66.7,29.65,ESE,104,1.0,4.0,94,0.11,,OVC080,0.71,VWS V14.01,2013-06-29 21:13:00,
2013-06-29 17:19:00,68.7,66.9,29.65,East,89,1.0,4.0,94,0.11,,OVC080,0.71,VWS V14.01,2013-06-29 21:19:00,
2013-06-29 17:24:00,68.9,66.8,29.65,SE,127,2.0,6.0,93,0.11,,OVC080,0.71,VWS V14.01,2013-06-29 21:24:00,
2013-06-29 17:29:00,69.0,66.6,29.65,ESE,122,2.0,6.0,92,0.11,,OVC080,0.71,VWS V14.01,2013-06-29 21:29:00,
2013-06-29 17:34:00,69.2,66.8,29.65,East,93,3.0,3.0,92,0.01,,RA,0.71,VWS V14.01,2013-06-29 21:34:00,
2013-06-29 17:39:00,69.2,66.5,29.65,ESE,104,2.0,6.0,91,0.01,,RA,0.71,VWS V14.01,2013-06-29 21:39:00,
2013-06-29 17:44:00,69.0,66.3,29.65,ESE,115,4.0,6.0,91,0.01,,RA,0.71,VWS V14.01,2013-06-29 21:44:00,
2013-06-29 17:49:00,68.8,66.1,29.65,ESE,108,3.0,6.0,91,0.01,,RA,0.71,VWS V14.01,2013-06-29 21:49:00,
2013-06-29 17:55:00,68.9,66.2,29.65,SE,128,2.0,6.0,91,0.01,,RA,0.71,VWS V14.01,2013-06-29 21:55:00,
2013-06-29 18:00:00,68.9,66.2,29.65,SE,134,0.0,6.0,91,0.01,,RA,0.71,VWS V14.01,2013-06-29 22:00:00,
2013-06-29 18:05:00,69.0,65.9,29.65,SE,146,2.0,4.0,90,0.00,, +RA,0.71,VWS V14.01,2013-06-29 22:05:00,
2013-06-29 18:10:00,69.0,65.6,29.65,SE,137,1.0,4.0,89,0.00,, +RA,0.71,VWS V14.01,2013-06-29 22:10:00,
2013-06-29 18:15:00,69.3,66.2,29.65,SE,125,1.0,4.0,90,0.00,, +RA,0.71,VWS V14.01,2013-06-29 22:15:00,
2013-06-29 18:20:00,69.4,66.3,29.65,ESE,116,0.0,4.0,90,0.00,, +RA,0.71,VWS V14.01,2013-06-29 22:20:00,
2013-06-29 18:26:00,69.7,66.3,29.65,ESE,122,1.0,4.0,89,0.00,, +RA,0.71,VWS V14.01,2013-06-29 22:26:00,
2013-06-29 18:31:00,69.8,66.4,29.65,SE,136,2.0,4.0,89,0.00,, +RA,0.71,VWS V14.01,2013-06-29 22:31:00,
2013-06-29 18:36:00,69.8,66.4,29.66,SE,124,1.0,2.0,89,0.00,,OVC075,0.71,VWS V14.01,2013-06-29 22:36:00,
2013-06-29 18:41:00,69.9,66.2,29.66,SE,127,2.0,3.0,88,0.00,,OVC075,0.71,VWS V14.01,2013-06-29 22:41:00,
2013-06-29 18:46:00,70.0,66.3,29.66,SSE,158,0.0,3.0,88,0.00,,OVC075,0.71,VWS V14.01,2013-06-29 22:46:00,
2013-06-29 18:51:00,70.4,66.3,29.66,SSW,200,0.0,3.0,87,0.00,,OVC075,0.71,VWS V14.01,2013-06-29 22:51:00,
2013-06-29 18:56:00,70.8,66.7,29.66,South,169,2.0,3.0,87,0.00,,OVC075,0.71,VWS V14.01,2013-06-29 22:56:00,
2013-06-29 19:01:00,71.0,66.9,29.67,South,187,0.0,3.0,87,0.00,,OVC075,0.71,VWS V14.01,2013-06-29 23:01:00,
2013-06-29 19:07:00,71.1,66.4,29.67,South,176,0.0,1.0,85,0.00,,OVC075,0.71,VWS V14.01,2013-06-29 23:07:00,
2013-06-29 19:12:00,71.0,66.6,29.67,SE,145,0.0,1.0,86,0.00,,OVC075,0.71,VWS V14.01,2013-06-29 23:12:00,
2013-06-29 19:17:00,71.0,66.6,29.67,ESE,110,0.0,1.0,86,0.00,,OVC075,0.71,VWS V14.01,2013-06-29 23:17:00,
2013-06-29 19:22:00,71.2,67.1,29.68,ESE,110,0.0,1.0,87,0.00,,OVC075,0.71,VWS V14.01,2013-06-29 23:22:00,
2013-06-29 19:27:00,70.9,67.2,29.68,ESE,110,0.0,1.0,88,0.00,,OVC075,0.71,VWS V14.01,2013-06-29 23:27:00,
2013-06-29 19:32:00,70.4,66.7,29.67,ESE,110,0.0,1.0,88,0.00,,OVC080,0.71,VWS V14.01,2013-06-29 23:32:00,
2013-06-29 19:37:00,69.9,66.5,29.68,ESE,108,0.0,0.0,89,0.00,,OVC080,0.71,VWS V14.01,2013-06-29 23:37:00,
2013-06-29 19:42:00,69.3,66.6,29.67,ESE,108,0.0,0.0,91,0.00,,OVC080,0.71,VWS V14.01,2013-06-29 23:42:00,
2013-06-29 19:47:00,68.8,66.4,29.68,ESE,107,0.0,0.0,92,0.00,,OVC080,0.71,VWS V14.01,2013-06-29 23:47:00,
2013-06-29 19:53:00,68.3,65.9,29.68,ESE,107,0.0,0.0,92,0.00,,OVC080,0.71,VWS V14.01,2013-06-29 23:53:00,
2013-06-29 19:58:00,67.8,65.7,29.68,ESE,107,0.0,0.0,93,0.00,,OVC080,0.71,VWS V14.01,2013-06-29 23:58:00,
2013-06-29 20:03:00,67.5,65.4,29.68,ESE,108,0.0,0.0,93,0.00,,OVC080,0.71,VWS V14.01,2013-06-30 00:03:00,
2013-06-29 20:08:00,67.2,65.4,29.68,ESE,107,0.0,0.0,94,0.00,,CLR,0.71,VWS V14.01,2013-06-30 00:08:00,
2013-06-29 20:13:00,66.9,65.1,29.68,ESE,108,0.0,0.0,94,0.00,,CLR,0.71,VWS V14.01,2013-06-30 00:13:00,
2013-06-29 20:18:00,66.7,65.2,29.68,ESE,108,0.0,0.0,95,0.00,,CLR,0.71,VWS V14.01,2013-06-30 00:18:00,
2013-06-29 20:23:00,66.4,64.9,29.69,ESE,107,0.0,0.0,95,0.00,,CLR,0.71,VWS V14.01,2013-06-30 00:23:00,
2013-06-29 20:29:00,66.2,64.7,29.69,ESE,107,0.0,0.0,95,0.00,,CLR,0.71,VWS V14.01,2013-06-30 00:29:00,
2013-06-29 20:34:00,66.1,64.6,29.69,ESE,107,0.0,0.0,95,0.00,,CLR,0.71,VWS V14.01,2013-06-30 00:34:00,
2013-06-29 20:39:00,65.9,64.7,29.69,ESE,107,0.0,0.0,96,0.00,,CLR,0.71,VWS V14.01,2013-06-30 00:39:00,
2013-06-29 20:44:00,65.8,64.6,29.69,ESE,108,0.0,0.0,96,0.00,,CLR,0.71,VWS V14.01,2013-06-30 00:44:00,
2013-06-29 20:49:00,65.8,64.6,29.69,ESE,108,0.0,0.0,96,0.00,,CLR,0.71,VWS V14.01,2013-06-30 00:49:00,
2013-06-29 20:54:00,65.7,64.5,29.69,ESE,107,0.0,0.0,96,0.00,,CLR,0.71,VWS V14.01,2013-06-30 00:54:00,
2013-06-29 20:59:00,65.5,64.3,29.70,ESE,108,0.0,0.0,96,0.00,,CLR,0.71,VWS V14.01,2013-06-30 00:59:00,
2013-06-29 21:04:00,65.4,64.2,29.70,ESE,107,0.0,0.0,96,0.00,,CLR,0.71,VWS V14.01,2013-06-30 01:04:00,
2013-06-29 21:09:00,65.3,64.1,29.70,ESE,108,0.0,0.0,96,0.00,,CLR,0.71,VWS V14.01,2013-06-30 01:09:00,
2013-06-29 21:15:00,65.1,63.9,29.70,ESE,108,0.0,0.0,96,0.00,,CLR,0.71,VWS V14.01,2013-06-30 01:15:00,
2013-06-29 21:20:00,65.2,64.3,29.70,ESE,107,0.0,0.0,97,0.00,,CLR,0.71,VWS V14.01,2013-06-30 01:20:00,
2013-06-29 21:25:00,65.1,64.2,29.70,ESE,108,0.0,0.0,97,0.00,,CLR,0.71,VWS V14.01,2013-06-30 01:25:00,
2013-06-29 21:30:00,65.2,64.3,29.70,ESE,108,0.0,0.0,97,0.00,,CLR,0.71,VWS V14.01,2013-06-30 01:30:00,
2013-06-29 21:35:00,65.2,64.3,29.71,ESE,107,0.0,0.0,97,0.00,,CLR,0.71,VWS V14.01,2013-06-30 01:35:00,
2013-06-29 21:40:00,65.2,64.3,29.71,ESE,107,0.0,0.0,97,0.00,,CLR,0.71,VWS V14.01,2013-06-30 01:40:00,
2013-06-29 21:45:00,65.3,64.4,29.72,ESE,108,0.0,0.0,97,0.00,,CLR,0.71,VWS V14.01,2013-06-30 01:45:00,
2013-06-29 21:50:00,65.4,64.5,29.72,ESE,108,0.0,0.0,97,0.00,,CLR,0.71,VWS V14.01,2013-06-30 01:50:00,
2013-06-29 21:56:00,65.4,64.5,29.72,ESE,108,0.0,0.0,97,0.00,,CLR,0.71,VWS V14.01,2013-06-30 01:56:00,
2013-06-29 22:01:00,65.4,64.5,29.73,SE,136,0.0,0.0,97,0.00,,CLR,0.71,VWS V14.01,2013-06-30 02:01:00,
2013-06-29 22:06:00,65.5,64.6,29.73,SE,137,0.0,0.0,97,0.00,,CLR,0.71,VWS V14.01,2013-06-30 02:06:00,
2013-06-29 22:11:00,65.5,64.6,29.73,SE,136,0.0,0.0,97,0.00,,CLR,0.71,VWS V14.01,2013-06-30 02:11:00,
2013-06-29 22:16:00,65.6,64.7,29.73,SE,137,0.0,0.0,97,0.00,,CLR,0.71,VWS V14.01,2013-06-30 02:16:00,
2013-06-29 22:21:00,65.7,64.8,29.73,SE,137,0.0,0.0,97,0.00,,CLR,0.71,VWS V14.01,2013-06-30 02:21:00,
2013-06-29 22:27:00,65.7,64.8,29.73,SW,229,0.0,0.0,97,0.00,,CLR,0.71,VWS V14.01,2013-06-30 02:27:00,
2013-06-29 22:32:00,65.6,64.7,29.74,WSW,247,0.0,0.0,97,0.01,,CLR,0.72,VWS V14.01,2013-06-30 02:32:00,
2013-06-29 22:37:00,65.6,64.7,29.74,West,266,1.0,2.0,97,0.02,,SCT080,0.73,VWS V14.01,2013-06-30 02:37:00,
2013-06-29 22:42:00,65.5,64.6,29.74,WSW,242,2.0,3.0,97,0.05,,SCT080,0.76,VWS V14.01,2013-06-30 02:42:00,
2013-06-29 22:47:00,65.3,64.4,29.74,WSW,255,0.0,3.0,97,0.07,,SCT080,0.78,VWS V14.01,2013-06-30 02:47:00,
2013-06-29 22:52:00,65.1,64.2,29.74,WSW,254,0.0,3.0,97,0.08,,SCT080,0.79,VWS V14.01,2013-06-30 02:52:00,
2013-06-29 22:57:00,65.0,64.1,29.74,WSW,255,0.0,3.0,97,0.08,,SCT080,0.79,VWS V14.01,2013-06-30 02:57:00,
2013-06-29 23:02:00,64.9,64.0,29.74,WSW,254,0.0,3.0,97,0.08,,SCT080,0.79,VWS V14.01,2013-06-30 03:02:00,
2013-06-29 23:07:00,64.7,63.8,29.74,WSW,255,0.0,0.0,97,0.08,,SCT080,0.79,VWS V14.01,2013-06-30 03:07:00,
2013-06-29 23:13:00,64.7,63.8,29.74,WSW,255,0.0,0.0,97,0.08,,SCT080,0.79,VWS V14.01,2013-06-30 03:13:00,
2013-06-29 23:18:00,64.7,63.8,29.74,WSW,255,0.0,0.0,97,0.08,,SCT080,0.79,VWS V14.01,2013-06-30 03:18:00,
2013-06-29 23:23:00,64.7,63.8,29.74,WSW,255,0.0,0.0,97,0.08,,SCT080,0.79,VWS V14.01,2013-06-30 03:23:00,
2013-06-29 23:28:00,64.7,63.8,29.74,WSW,255,0.0,0.0,97,0.08,,SCT080,0.79,VWS V14.01,2013-06-30 03:28:00,
2013-06-29 23:33:00,64.6,63.7,29.74,WSW,255,0.0,0.0,97,0.07,,OVC060,0.79,VWS V14.01,2013-06-30 03:33:00,
2013-06-29 23:39:00,64.6,63.7,29.74,WSW,255,0.0,1.0,97,0.07,,OVC060,0.79,VWS V14.01,2013-06-30 03:39:00,
2013-06-29 23:44:00,64.5,63.6,29.74,WSW,254,0.0,1.0,97,0.07,,OVC060,0.79,VWS V14.01,2013-06-30 03:44:00,
2013-06-29 23:49:00,64.5,63.6,29.74,WSW,255,0.0,1.0,97,0.07,,OVC060,0.79,VWS V14.01,2013-06-30 03:49:00,
2013-06-29 23:54:00,64.5,63.6,29.74,WSW,255,0.0,1.0,97,0.07,,OVC060,0.79,VWS V14.01,2013-06-30 03:54:00,
2013-06-29 23:59:00,64.5,63.6,29.74,WSW,255,0.0,1.0,97,0.07,,OVC060,0.79,VWS V14.01,2013-06-30 03:59:00,